Flag for U.S.A. Weather past 2 weeks in Petersburg, Indiana, U.S.A.

Now
75 °F

Clear.


Feels Like: 77 °F
Forecast: 65 / 87 °F
Wind: 6 mph from North

Location: Huntingburg Airport

Current Time: Jul 30, 2015 at 2:30:18 AM

Latest Report: Jul 30, 2015 at 1:55 AM


Visibility: 10 mi

Pressure: 30.05 "Hg

Humidity: 65%

Dew point: 63 °F

Location of PetersburgLocation

Historic Weather in Petersburg — Graph

°F

Petersburg temperature yesterday

Maximum temperature yesterday: 93 °F (at 3:15 PM)
Minimum temperature yesterday: 73 °F (at 2:35 AM)
Average temperature yesterday: 82 °F

Past Weeks' High & Low Weather Summary

 TemperatureHumidityPressure
High93 °F (Jul 18, 5:15 PM)94% (Jul 16, 2:35 AM)30.06 "Hg (Jul 16, 2:35 AM)
Low63 °F (Jul 22, 6:35 AM)42% (Jul 22, 11:55 AM)29.78 "Hg (Jul 21, 3:55 AM)
Average78 °F74%29.95 "Hg
* Reported Jul 15 1:15 AM — Jul 30 1:35 AM, Petersburg, Weather by CustomWeather, © 2015

Note: Actual official high and low records may vary slightly from our data, if they occured in-between our weather recording intervals... More about our weather records

Advertising

Petersburg weather history for previous 24 hours

 ConditionsComfort  
Time TempWeatherWind HumidityBarometerVisibility
1:35 AM
Thu, Jul 30
75 °FClear.9 mph69%30.05 "Hg10 mi
1:15 AM75 °FClear.9 mph74%30.05 "Hg10 mi
12:55 AM77 °FClear.8 mph74%30.05 "Hg10 mi
12:35 AM77 °FClear.8 mph79%30.04 "Hg10 mi
11:35 PM
Wed, Jul 29
79 °FClear.6 mph84%30.05 "Hg10 mi
11:15 PM81 °FClear.6 mph79%30.04 "Hg10 mi
10:55 PM81 °FClear.6 mph79%30.04 "Hg10 mi
10:35 PM81 °FClear.6 mph79%30.03 "Hg10 mi
10:15 PM81 °FClear.No wind79%30.02 "Hg10 mi
9:55 PM81 °FSunny.3 mph79%30.02 "Hg10 mi
9:35 PM81 °FSunny.5 mph79%30.01 "Hg10 mi
9:15 PM81 °FSunny.No wind79%30.00 "Hg10 mi
8:55 PM81 °FSunny.5 mph79%30.00 "Hg10 mi
8:35 PM82 °FSunny.6 mph74%29.98 "Hg10 mi
8:15 PM82 °FSunny.6 mph74%29.97 "Hg10 mi
7:55 PM82 °FSunny.8 mph74%29.97 "Hg10 mi
7:35 PM84 °FSunny.7 mph70%29.97 "Hg10 mi
7:15 PM84 °FSunny.8 mph70%29.96 "Hg10 mi
6:55 PM88 °FSunny.12 mph62%29.96 "Hg10 mi
6:35 PM88 °FSunny.9 mph66%29.96 "Hg10 mi
5:55 PM90 °FThunderstorms. Sunny.16 mph71%29.94 "Hg10 mi
5:35 PM91 °FThundershowers. Passing clouds.13 mph67%29.92 "Hg10 mi
5:15 PM91 °FThundershowers. Sunny.8 mph67%29.94 "Hg10 mi
4:55 PM91 °FSunny.12 mph67%29.95 "Hg10 mi
4:35 PM90 °FSunny.7 mph71%29.96 "Hg10 mi
4:15 PM93 °FScattered clouds.9 mph63%29.96 "Hg10 mi
3:55 PM91 °FBroken clouds.8 mph67%29.97 "Hg10 mi
3:35 PM93 °FSunny.8 mph63%29.96 "Hg10 mi
3:15 PM93 °FSunny.6 mph63%29.97 "Hg10 mi
2:55 PM91 °FSunny.7 mph63%29.98 "Hg10 mi
2:35 PM91 °FSunny.3 mph67%29.99 "Hg10 mi
2:15 PM90 °FSunny.5 mph67%29.99 "Hg10 mi
1:55 PM90 °FSunny.3 mph67%29.99 "Hg10 mi
1:35 PM88 °FSunny.5 mph66%29.99 "Hg10 mi
1:15 PM90 °FSunny.6 mph63%29.99 "Hg10 mi
12:55 PM88 °FSunny.7 mph66%30.00 "Hg10 mi
12:35 PM90 °FSunny.8 mph63%30.00 "Hg10 mi
12:15 PM90 °FSunny.7 mph59%29.99 "Hg10 mi
11:55 AM90 °FSunny.3 mph59%30.00 "Hg10 mi
11:35 AM88 °FSunny.3 mph62%30.00 "Hg10 mi
11:15 AM88 °FSunny.5 mph62%30.00 "Hg10 mi
10:55 AM88 °FSunny.3 mph62%30.00 "Hg10 mi
10:35 AM84 °FSunny.5 mph70%29.99 "Hg10 mi
10:15 AM84 °FSunny.6 mph70%29.99 "Hg10 mi
9:55 AM82 °FSunny.5 mph74%30.00 "Hg10 mi
9:35 AM81 °FSunny.7 mph79%30.02 "Hg10 mi
9:15 AM79 °FSunny.3 mph84%30.01 "Hg10 mi
8:55 AM77 °FScattered clouds.6 mph83%30.01 "Hg10 mi
8:35 AM75 °FMore clouds than sun.7 mph89%30.02 "Hg6 mi
8:15 AM75 °FPartly sunny.6 mph89%30.02 "Hg5 mi
7:55 AM73 °FScattered clouds.5 mph94%30.01 "Hg3 mi
7:35 AM73 °FClear.3 mph94%30.00 "Hg3 mi
7:15 AM73 °FClear.3 mph94%30.00 "Hg3 mi
6:55 AM73 °FPassing clouds.No wind89%30.00 "Hg3 mi
6:35 AM73 °FPassing clouds.3 mph89%30.00 "Hg5 mi
6:15 AM73 °FPassing clouds.No wind89%30.00 "Hg5 mi
5:55 AM73 °FClear.No wind89%29.99 "Hg5 mi
5:35 AM73 °FClear.No wind89%29.98 "Hg7 mi
5:15 AM73 °FClear.No wind89%29.98 "Hg7 mi
4:55 AM73 °FClear.No wind89%29.98 "Hg8 mi
4:35 AM73 °FClear.3 mph89%29.97 "Hg8 mi
4:15 AM73 °FClear.3 mph89%29.96 "Hg7 mi
3:35 AM73 °FClear.5 mph89%29.95 "Hg8 mi
3:15 AM73 °FClear.No wind94%29.96 "Hg9 mi
2:55 AM73 °FClear.No wind94%29.96 "Hg9 mi
2:35 AM73 °FClear.No wind94%29.98 "Hg10 mi
2:15 AM75 °FClear.No wind89%29.99 "Hg10 mi
Weather by CustomWeather, © 2015

See weather overviewHow to use our weather pages